Location: *
(41.7492°S, 135.4150°W)
Time: 00:17:44
(UTC+00:00)

SL-24 DEB - Pass Details

Date: 20 September 2021
Orbit: 665 x 699 km, 92.0° (Epoch: 24 October)

Event Time Altitude Azimuth Distance (km) Brightness Sun altitude
Exits shadow 13:02:05 49° 259° (W) 889 4.4 -21.3°
Drops below altitude 10° 13:06:23 10° 196° (SSW) 2,142 6.8 -20.5°
Sets 13:08:43 0° 190° (S) 3,060 7.7 -20.1°
